Weather History for KSNC - August, 2013

Change the Weather History Date:

Friday, August 23, 2013

  Actual Average (KHVN) Record (KHVN)
Temperature  
Mean Temperature 71 °F -  
Max Temperature 80 °F 77 °F 90 °F (1976)
Min Temperature 62 °F 62 °F 54 °F (2004)
Cooling Degree Days 6    
Growing Degree Days 21 (Base 50)    
Moisture  
Dew Point 61 °F    
Average Humidity 72    
Maximum Humidity 100    
Minimum Humidity 39    
Precipitation  
Precipitation 0.00 in - - ()
Sea Level Pressure  
Sea Level Pressure 29.97 in    
Wind  
Wind Speed 6 mph (North)    
Max Wind Speed 14 mph    
Max Gust Speed 18 mph    
Visibility 9 miles    
Events      
Averages and records for this station are not official NWS values.
T = Trace of Precipitation, MM = Missing Value Source: NWS Daily Summary

Daily Weather History Graph

Daily Weather History Graph

Search for Another Location

Airport or City:

Trip Planner

Search our weather history database for the weather conditions in past years. The results will help you decide how hot, cold, wet, or windy it might be!

Date:

Astronomy

Aug. 23, 2013 Rise Set
Actual Time 6:07 AM EDT 7:36 PM EDT
Civil Twilight 5:38 AM EDT 8:05 PM EDT
Nautical Twilight 5:03 AM EDT 8:40 PM EDT
Astronomical Twilight 4:26 AM EDT 9:17 PM EDT
Moon 8:51 PM EDT (8/23) 9:02 AM EDT (8/23)
Length of Visible Light 14h 27m
Length of Day
13h 29m
Waning Gibbous, 91% of the Moon is Illuminated
Aug 23
Waning Gibbous
Aug 28
Last Quarter
Sep 5
New
Sep 12
First Quarter
Sep 19
Full

Hourly Weather History & Observations

Time (EDT) Temp. Heat Index Dew Point Humidity Pressure Visibility Wind Dir Wind Speed Gust Speed Precip Events Conditions
12:15 AM 69.8 °F - 69.8 °F 100% 29.88 in 7.0 mi West 4.6 mph - N/A   Scattered Clouds
12:35 AM 69.8 °F - 69.8 °F 100% 29.89 in 6.0 mi West 5.8 mph - N/A   Mostly Cloudy
12:55 AM 69.8 °F - 69.8 °F 100% 29.88 in 5.0 mi West 3.5 mph - N/A   Scattered Clouds
1:15 AM 69.8 °F - 69.8 °F 100% 29.88 in 4.0 mi Calm Calm - N/A   Scattered Clouds
1:35 AM 69.8 °F - 69.8 °F 100% 29.88 in 3.0 mi West 3.5 mph - N/A   Mostly Cloudy
1:55 AM 69.8 °F - 69.8 °F 100% 29.87 in 3.0 mi West 3.5 mph - N/A   Partly Cloudy
2:15 AM 69.8 °F - 69.8 °F 100% 29.87 in 2.5 mi WNW 3.5 mph - N/A   Partly Cloudy
2:35 AM 69.8 °F - 69.8 °F 100% 29.87 in 2.5 mi Calm Calm - N/A   Clear
2:55 AM 69.8 °F - 69.8 °F 100% 29.88 in 3.0 mi Calm Calm - N/A   Clear
3:15 AM 69.8 °F - 69.8 °F 100% 29.87 in 4.0 mi NNW 5.8 mph - N/A   Scattered Clouds
3:35 AM 69.8 °F - 69.8 °F 100% 29.87 in 7.0 mi NNW 5.8 mph - N/A   Scattered Clouds
3:55 AM 69.8 °F - 69.8 °F 100% 29.87 in 8.0 mi North 4.6 mph - N/A   Partly Cloudy
4:15 AM 69.8 °F - 69.8 °F 100% 29.87 in 8.0 mi North 6.9 mph - N/A   Mostly Cloudy
4:35 AM 69.8 °F - 68.0 °F 94% 29.87 in 9.0 mi North 6.9 mph - N/A   Mostly Cloudy
4:55 AM 69.8 °F - 68.0 °F 94% 29.88 in 10.0 mi NNW 8.1 mph - N/A   Mostly Cloudy
5:15 AM 69.8 °F - 66.2 °F 88% 29.89 in 10.0 mi North 9.2 mph - N/A   Mostly Cloudy
5:35 AM 69.8 °F - 66.2 °F 88% 29.89 in 10.0 mi North 9.2 mph - N/A   Scattered Clouds
5:55 AM 69.8 °F - 66.2 °F 88% 29.90 in 10.0 mi North 8.1 mph - N/A   Partly Cloudy
6:15 AM 69.8 °F - 66.2 °F 88% 29.90 in 10.0 mi North 6.9 mph - N/A   Clear
6:35 AM 69.8 °F - 64.4 °F 83% 29.91 in 10.0 mi North 8.1 mph - N/A   Clear
6:55 AM 69.8 °F - 64.4 °F 83% 29.93 in 10.0 mi North 5.8 mph - N/A   Clear
7:15 AM 69.8 °F - 64.4 °F 83% 29.93 in 10.0 mi North 6.9 mph - N/A   Clear
7:35 AM 69.8 °F - 64.4 °F 83% 29.94 in 10.0 mi North 11.5 mph - N/A   Clear
7:55 AM 69.8 °F - 64.4 °F 83% 29.95 in 10.0 mi North 10.4 mph 16.1 mph N/A   Clear
8:15 AM 69.8 °F - 62.6 °F 78% 29.95 in 10.0 mi North 9.2 mph - N/A   Clear
8:35 AM 69.8 °F - 62.6 °F 78% 29.96 in 10.0 mi North 10.4 mph - N/A   Clear
8:55 AM 69.8 °F - 62.6 °F 78% 29.96 in 10.0 mi North 8.1 mph - N/A   Clear
9:15 AM 71.6 °F - 62.6 °F 73% 29.96 in 10.0 mi North 9.2 mph - N/A   Clear
9:35 AM 71.6 °F - 62.6 °F 73% 29.97 in 10.0 mi North 10.4 mph 16.1 mph N/A   Clear
9:55 AM 71.6 °F - 60.8 °F 69% 29.97 in 10.0 mi North 9.2 mph - N/A   Clear
10:15 AM 73.4 °F - 60.8 °F 65% 29.97 in 10.0 mi North 10.4 mph - N/A   Partly Cloudy
10:35 AM 75.2 °F - 59.0 °F 57% 29.98 in 10.0 mi NNW 13.8 mph 18.4 mph N/A   Clear
10:55 AM 75.2 °F - 57.2 °F 53% 29.98 in 10.0 mi NNE 10.4 mph 18.4 mph N/A   Partly Cloudy
11:15 AM 75.2 °F - 57.2 °F 53% 29.98 in 10.0 mi NNE 9.2 mph - N/A   Clear
11:35 AM 75.2 °F - 59.0 °F 57% 29.97 in 10.0 mi North 12.7 mph - N/A   Clear
11:55 AM 75.2 °F - 55.4 °F 50% 29.97 in 10.0 mi NNW 10.4 mph 17.3 mph N/A   Clear
12:15 PM 77.0 °F - 55.4 °F 47% 29.98 in 10.0 mi NNW 12.7 mph 17.3 mph N/A   Clear
12:35 PM 78.8 °F - 55.4 °F 44% 29.98 in 10.0 mi North 10.4 mph - N/A   Clear
12:55 PM 78.8 °F - 55.4 °F 44% 29.97 in 10.0 mi North 8.1 mph - N/A   Clear
1:15 PM 80.6 °F 80.5 °F 55.4 °F 42% 29.98 in 10.0 mi NNW 10.4 mph - N/A   Clear
1:35 PM 78.8 °F - 55.4 °F 44% 29.98 in 10.0 mi NNW 10.4 mph 16.1 mph N/A   Partly Cloudy
1:55 PM 78.8 °F - 53.6 °F 42% 29.99 in 10.0 mi North 6.9 mph - N/A   Partly Cloudy
2:15 PM 78.8 °F - 55.4 °F 44% 29.99 in 10.0 mi NNW 9.2 mph - N/A   Partly Cloudy
2:35 PM 78.8 °F - 55.4 °F 44% 29.99 in 10.0 mi NNW 10.4 mph - N/A   Partly Cloudy
2:55 PM 78.8 °F - 55.4 °F 44% 29.99 in 10.0 mi NNW 8.1 mph - N/A   Clear
3:15 PM 78.8 °F - 51.8 °F 39% 29.99 in 10.0 mi North 9.2 mph - N/A   Clear
3:35 PM 78.8 °F - 53.6 °F 42% 29.99 in 10.0 mi North 9.2 mph - N/A   Partly Cloudy
3:55 PM 78.8 °F - 53.6 °F 42% 30.00 in 10.0 mi NNW 8.1 mph - N/A   Clear
4:15 PM 78.8 °F - 55.4 °F 44% 30.00 in 10.0 mi North 4.6 mph - N/A   Partly Cloudy
4:35 PM 78.8 °F - 53.6 °F 42% 30.00 in 10.0 mi North 5.8 mph - N/A   Clear
4:55 PM 78.8 °F - 53.6 °F 42% 30.00 in 10.0 mi NNE 6.9 mph - N/A   Clear
5:15 PM 78.8 °F - 53.6 °F 42% 30.00 in 10.0 mi NNE 8.1 mph - N/A   Clear
5:35 PM 78.8 °F - 51.8 °F 39% 30.00 in 10.0 mi North 8.1 mph - N/A   Clear
5:55 PM 77.0 °F - 53.6 °F 44% 30.00 in 10.0 mi NNE 4.6 mph - N/A   Clear
6:15 PM 75.2 °F - 53.6 °F 47% 30.01 in 10.0 mi North 4.6 mph - N/A   Clear
6:35 PM 75.2 °F - 55.4 °F 50% 30.01 in 10.0 mi North 3.5 mph - N/A   Clear
6:55 PM 73.4 °F - 55.4 °F 53% 30.02 in 10.0 mi North 3.5 mph - N/A   Clear
7:15 PM 73.4 °F - 57.2 °F 57% 30.03 in 10.0 mi NE 4.6 mph - N/A   Clear
7:35 PM 71.6 °F - 60.8 °F 69% 30.04 in 10.0 mi Calm Calm - N/A   Partly Cloudy
7:55 PM 69.8 °F - 62.6 °F 78% 30.05 in 10.0 mi SSE 5.8 mph - N/A   Clear
8:15 PM 69.8 °F - 60.8 °F 73% 30.06 in 10.0 mi SSE 4.6 mph - N/A   Clear
8:35 PM 68.0 °F - 60.8 °F 78% 30.07 in 10.0 mi Calm Calm - N/A   Clear
8:55 PM 66.2 °F - 62.6 °F 88% 30.09 in 10.0 mi Calm Calm - N/A   Mostly Cloudy
9:15 PM 66.2 °F - 62.6 °F 88% 30.09 in 10.0 mi Calm Calm - N/A   Mostly Cloudy
9:35 PM 64.4 °F - 62.6 °F 94% 30.09 in 10.0 mi Calm Calm - N/A   Scattered Clouds
9:55 PM 64.4 °F - 62.6 °F 94% 30.10 in 10.0 mi Calm Calm - N/A   Partly Cloudy
10:15 PM 64.4 °F - 62.6 °F 94% 30.10 in 10.0 mi Calm Calm - N/A   Clear
10:35 PM 62.6 °F - 60.8 °F 94% 30.11 in 10.0 mi Calm Calm - N/A   Clear
10:55 PM 66.2 °F - 57.2 °F 73% 30.11 in 10.0 mi NE 3.5 mph - N/A   Clear
11:15 PM 64.4 °F - 59.0 °F 83% 30.12 in 10.0 mi North 3.5 mph - N/A   Clear
11:35 PM 64.4 °F - 57.2 °F 77% 30.13 in 10.0 mi North 4.6 mph - N/A   Clear
11:55 PM 64.4 °F - 57.2 °F 77% 30.13 in 10.0 mi North 5.8 mph - N/A   Clear